Cloud_Cover
100 100 100 100 98 19 34 5 5 5 5 5 6 5 0 0 100 100 100 100 100 71 100 95 96 100 100 37 32 41 41 100 100 100 100 100 100 100 100 100 100 100 51 7 5
100 100 100 100 100 66 21 94 32 5 5 2 4 43 5 3 0 75 100 100 100 100 100 91 46 38 56 70 37 5 9 100 100 100 100 100 100 100 100 100 100 100 100 93 94
100 100 100 100 42 79 100 85 13 68 67 5 2 5 5 2 2 74 1 88 100 100 100 100 93 91 28 46 57 9 17 100 100 100 100 100 100 100 100 100 100 100 100 100 100
11 67 6 97 100 92 15 6 5 5 100 100 14 0 3 4 2 0 0 0 74 100 100 100 100 100 100 72 44 37 9 100 100 98 100 100 99 100 100 100 100 100 100 100 100
82 100 100 5 2 5 5 52 5 5 100 100 100 39 77 5 0 4 1 0 0 2 100 100 100 100 98 80 99 55 55 40 100 100 100 68 66 100 100 100 100 100 100 100 100
2 6 5 0 0 1 4 6 8 17 6 51 100 100 12 16 4 3 2 4 0 0 0 100 100 100 100 100 51 64 99 55 100 100 100 45 45 100 100 100 100 100 100 100 100
4 5 2 4 0 0 42 57 100 71 12 5 6 19 49 86 3 0 0 2 5 0 0 0 31 100 100 100 100 100 76 59 65 99 9 5 6 18 100 100 100 100 100 100 100
5 92 25 21 5 5 4 7 5 0 0 0 0 0 0 1 0 0 0 0 0 0 0 0 1 2 89 100 100 100 99 100 94 73 19 59 4 5 88 100 100 100 100 100 100
22 80 5 23 5 15 5 5 5 0 0 4 3 0 0 0 0 0 3 4 0 0 1 0 0 0 5 8 90 100 91 97 100 100 51 63 6 2 5 87 99 100 100 100 100
17 69 25 35 6 1 1 5 1 4 0 0 0 0 0 0 0 0 0 0 0 0 0 0 0 2 20 35 69 42 73 79 82 82 100 54 63 59 2 26 100 100 100 100 100
34 14 5 5 5 0 2 0 0 0 0 0 0 0 0 0 0 0 0 0 0 0 0 2 4 27 0 2 23 31 17 77 98 99 100 100 66 100 45 63 55 100 100 100 100
43 11 5 5 2 2 1 0 53 78 16 0 0 0 0 0 0 0 0 0 0 0 1 14 50 0 0 0 58 100 100 23 72 59 100 93 100 100 99 7 5 100 100 100 100
35 62 7 5 4 0 0 30 8 43 2 0 0 0 0 0 0 0 0 0 4 52 18 100 2 3 2 1 6 20 96 100 100 99 100 100 100 99 97 75 64 52 99 100 100
5 5 5 5 1 0 2 0 0 6 0 0 0 0 0 0 0 0 0 0 1 3 98 81 3 3 4 32 13 22 64 65 100 100 59 89 77 100 75 100 8 5 94 90 100
87 5 5 5 4 0 0 0 0 2 0 0 0 0 0 0 4 5 1 0 0 0 47 3 2 46 5 5 1 3 84 100 100 100 100 100 100 9 84 100 100 29 76 91 100
22 62 22 8 4 0 0 0 0 0 0 0 0 4 3 5 5 1 2 0 5 34 30 19 5 7 5 3 57 6 71 100 100 100 100 89 100 7 34 34 100 99 100 100 100
5 55 37 8 4 0 0 0 1 0 0 1 16 5 5 5 4 4 4 5 6 66 17 62 4 2 2 4 10 31 100 100 100 100 100 100 87 1 50 100 100 54 79 100 100
98 60 13 5 0 0 0 3 0 1 4 5 6 5 5 8 5 5 5 38 9 100 100 100 8 5 88 94 87 100 100 100 100 100 84 100 100 5 46 100 100 83 51 100 100
100 99 8 8 0 0 4 2 0 0 7 47 16 5 6 4 9 5 5 8 52 100 100 99 30 92 99 100 100 100 100 100 100 92 100 100 71 19 100 87 42 97 100 100 100
100 96 74 5 0 0 5 2 37 5 6 48 76 46 100 9 34 5 6 3 6 18 100 100 99 100 100 100 100 100 100 100 100 88 47 23 98 100 100 100 100 100 100 100 100
98 30 75 5 0 5 4 5 5 5 5 69 96 90 93 99 100 93 30 3 9 5 5 100 100 100 100 90 100 100 100 100 99 100 100 100 100 100 100 100 100 100 100 100 100
62 98 10 0 5 93 20 8 2 5 5 6 90 100 100 95 86 73 39 24 5 26 72 100 100 100 100 100 100 100 100 100 100 100 100 100 100 100 100 100 100 100 100 100 100
67 98 5 0 5 82 14 5 5 5 5 6 25 69 96 91 86 61 5 5 5 6 34 100 100 100 100 100 100 100 100 100 100 100 100 100 100 100 100 100 100 100 100 100 100
22 78 5 5 15 5 26 5 5 5 5 5 5 5 55 96 43 33 30 12 5 48 45 81 100 100 100 100 100 100 100 100 100 100 100 100 100 100 100 100 100 100 100 100 100
20 88 8 74 63 5 5 5 5 5 5 5 32 96 42 98 38 80 32 5 11 46 48 98 100 80 80 100 100 100 100 100 100 100 100 100 100 100 100 100 100 100 100 100 100
11 73 62 73 15 5 5 17 5 5 5 10 36 5 7 95 5 63 94 90 37 100 100 100 100 100 100 100 100 100 100 100 100 100 100 100 100 100 100 100 100 100 100 100 100
9 99 5 95 45 23 20 5 9 5 11 18 5 7 5 6 18 13 50 59 86 100 100 100 100 100 100 100 100 100 100 100 100 100 100 100 100 100 100 100 100 100 100 100 100